Weather History for Huntington, WV

Change the Weather History Date:

Thursday, May 1, 2014

  Actual Average Record
Temperature  
Mean Temperature 56 °F 60 °F  
Max Temperature 62 °F 72 °F 92 °F (1948)
Min Temperature 50 °F 49 °F 32 °F (1969)
Degree Days  
Heating Degree Days 9 6  
Month to date heating degree days 9 6  
Since 1 July heating degree days 4720 4394  
Cooling Degree Days 0 1  
Month to date cooling degree days 0 1  
Year to date cooling degree days 14 33  
Growing Degree Days 6 (Base 50)    
Moisture  
Dew Point 44 °F    
Average Humidity 70    
Maximum Humidity 100    
Minimum Humidity 39    
Precipitation  
Precipitation T in 0.14 in 2.01 in (2003)
Month to date precipitation T 0.14  
Year to date precipitation 16.98 13.52  
Snow  
Snow 0.00 in - - ()
Month to date snowfall 0.0  
Since 1 September snowfall 36.8  
Snow Depth 0.00 in    
Sea Level Pressure  
Sea Level Pressure 29.90 in    
Wind  
Wind Speed 8 mph (SW)    
Max Wind Speed 20 mph    
Max Gust Speed 25 mph    
Visibility 10 miles    
Events Rain    
T = Trace of Precipitation, MM = Missing Value Source: NWS Daily Summary

Daily Weather History Graph

Daily Weather History Graph

Search for Another Location

Airport:

Trip Planner

Search our weather history database for the weather conditions in past years. The results will help you decide how hot, cold, wet, or windy it might be!

Date:

Astronomy

May. 01, 2014 Rise Set
Actual Time 6:33 AM EDT 8:21 PM EDT
Civil Twilight 6:04 AM EDT 8:50 PM EDT
Nautical Twilight 5:30 AM EDT 9:25 PM EDT
Astronomical Twilight 4:53 AM EDT 10:02 PM EDT
Moon 8:20 AM EDT (5/1) 10:53 PM EDT (5/1)
Length of Visible Light 14h 45m
Length of Day
13h 48m
Waxing Crescent, 6% of the Moon is Illuminated
May 1
Waxing Crescent
May 6
First Quarter
May 14
Full
May 21
Last Quarter
May 28
New

Hourly Weather History & Observations

Time (EDT) Temp. Dew Point Humidity Pressure Visibility Wind Dir Wind Speed Gust Speed Precip Events Conditions
12:51 AM 54.0 °F 54.0 °F 100% 29.88 in 10.0 mi SW 5.8 mph - N/A   Overcast
1:42 AM 54.0 °F 54.0 °F 100% 29.90 in 10.0 mi SSW 6.9 mph - N/A   Mostly Cloudy
1:51 AM 54.0 °F 54.0 °F 100% 29.89 in 10.0 mi SW 5.8 mph - N/A   Overcast
2:15 AM 55.0 °F 54.0 °F 96% 29.90 in 10.0 mi WSW 4.6 mph - N/A   Overcast
2:51 AM 54.0 °F 53.1 °F 97% 29.87 in 10.0 mi Variable 4.6 mph - N/A   Overcast
3:51 AM 53.1 °F 53.1 °F 100% 29.86 in 8.0 mi South 3.5 mph - N/A   Overcast
4:51 AM 52.0 °F 51.1 °F 97% 29.88 in 10.0 mi SW 4.6 mph - N/A   Overcast
5:51 AM 52.0 °F 48.0 °F 86% 29.89 in 10.0 mi WSW 5.8 mph - N/A   Overcast
6:51 AM 51.1 °F 46.9 °F 86% 29.89 in 10.0 mi WSW 5.8 mph - N/A   Overcast
7:51 AM 51.1 °F 46.9 °F 86% 29.91 in 10.0 mi West 5.8 mph - N/A   Overcast
8:42 AM 50.0 °F 45.0 °F 83% 29.93 in 10.0 mi WSW 8.1 mph - N/A   Overcast
8:51 AM 50.0 °F 46.0 °F 86% 29.93 in 10.0 mi West 6.9 mph - N/A   Overcast
9:02 AM 50.0 °F 46.0 °F 86% 29.93 in 10.0 mi SW 6.9 mph - 0.00 in Rain Light Rain
9:51 AM 51.1 °F 46.9 °F 86% 29.94 in 10.0 mi SW 6.9 mph - 0.00 in   Overcast
10:51 AM 55.0 °F 45.0 °F 69% 29.92 in 10.0 mi SW 11.5 mph 18.4 mph N/A   Mostly Cloudy
11:51 AM 57.0 °F 42.1 °F 57% 29.93 in 10.0 mi SW 10.4 mph - N/A   Mostly Cloudy
12:51 PM 57.9 °F 39.0 °F 49% 29.92 in 10.0 mi WSW 12.7 mph 23.0 mph N/A   Scattered Clouds
1:51 PM 59.0 °F 37.9 °F 46% 29.90 in 10.0 mi SW 11.5 mph 18.4 mph N/A   Mostly Cloudy
2:51 PM 61.0 °F 37.0 °F 41% 29.90 in 10.0 mi WSW 12.7 mph 19.6 mph N/A   Mostly Cloudy
3:51 PM 62.1 °F 37.0 °F 39% 29.88 in 10.0 mi SW 10.4 mph 17.3 mph N/A   Mostly Cloudy
4:51 PM 61.0 °F 37.9 °F 42% 29.88 in 10.0 mi WSW 10.4 mph - N/A   Mostly Cloudy
5:51 PM 59.0 °F 36.0 °F 42% 29.89 in 10.0 mi West 8.1 mph - N/A   Overcast
6:51 PM 57.9 °F 36.0 °F 44% 29.89 in 10.0 mi WSW 9.2 mph 16.1 mph N/A   Overcast
7:51 PM 57.0 °F 34.0 °F 42% 29.90 in 10.0 mi West 9.2 mph - N/A   Overcast
8:51 PM 55.9 °F 35.1 °F 45% 29.91 in 10.0 mi WSW 6.9 mph - N/A   Overcast
9:51 PM 55.0 °F 35.1 °F 47% 29.91 in 10.0 mi WSW 6.9 mph - N/A   Overcast
10:51 PM 54.0 °F 36.0 °F 51% 29.91 in 10.0 mi SSW 4.6 mph - N/A   Overcast
11:51 PM 52.0 °F 37.9 °F 59% 29.91 in 10.0 mi SSW 5.8 mph - N/A   Overcast